Tracking 28096 objects as of 28-Sep-2023
HD Live streaming from Space Station
objects crossing your sky now

STARLINK-3940

Track STARLINK-3940 now!
10-day predictions
STARLINK-3940 is classified as:


NORAD ID: 52540
Int'l Code: 2022-051H
Perigee: 546.0 km
Apogee: 547.9 km
Inclination: 53.2 °
Period: 95.4 minutes
Semi major axis: 6917 km
RCS: Unknown
Launch date: May 13, 2022
Source: United States (US)
Launch site: AIR FORCE WESTERN TEST RANGE (AFWTR)
Your satellite tracking list
Your tracking list is empty




NASA's NSSDC Master Catalog

Two Line Element Set (TLE):
1 52540U 22051H   23271.25001157  .00028942  00000-0  18306-2 0  9997
2 52540  53.2164 179.8235 0001377  93.1702  25.8016 15.08809755 76636
Source of the keplerian elements: AFSPC